Powrót do katalogu

STARLINK-35457

AktywnyŁącznośćVLEO
NORAD 66433·PAYLOAD·🇺🇸 United States

Wystrzelony Nov 11, 2025 z Cape Canaveral Space Force Station

Loading…

Następne Przeloty (najbliższe 24 godziny)

TLE

ŚwieżeSource: CelesTrak SupGP

Epoka: Sep 15, 2026, 03:35 UTC

1 66433C 25259M   26258.14979167 -.00010536  00000+0 -38158-3 0  2584
2 66433  42.9997 284.1040 0001192 263.3313 322.1879 15.27587785    15

Śledź STARLINK-35457 w czasie rzeczywistym z AllMySat

Download on the App Store